Home   Weather   Worcester   Past weeks

Flag for USA Past Weather in Worcester, Massachusetts, USA — Yesterday and Last 2 Weeks

Now
37 °F

Clear.


Feels Like: 30 °F
Forecast: 36 / 56 °F
Wind: 9 mph from Northwest

Location: Worcester Regional Airport

Current Time: Oct 17, 2017 at 7:09:22 am

Latest Report: Oct 17, 2017 at 5:54 am


Visibility: 10 mi

Pressure: 30.24 "Hg

Humidity: 65%

Dew Point: 26 °F

Location of WorcesterLocation

Past Weather in Worcester — Graph

°F

Worcester Temperature Yesterday

Maximum temperature yesterday: 64 °F (at 12:54 am)
Minimum temperature yesterday: 39 °F (at 11:54 pm)
Average temperature yesterday: 52 °F

High & Low Weather Summary for the Past Weeks

 TemperatureHumidityPressure
High75 °F (Oct 5, 3:54 pm)97% (Oct 15, 2:25 am)30.67 "Hg (Oct 15, 2:25 am)
Low36 °F (Oct 17, 2:54 am)34% (Oct 2, 1:54 pm)29.74 "Hg (Oct 15, 8:54 pm)
Average61 °F75%30.16 "Hg
* Reported Oct 2 5:54 am — Oct 17 5:54 am, Worcester. Weather by CustomWeather, © 2017

Note: Actual official high and low records may vary slightly from our data, if they occured in-between our weather recording intervals... More about our weather records

Advertising

Worcester Weather History for the Previous 24 Hours

Scroll right to see more
 ConditionsComfort  
Time TempWeatherWind HumidityBarometerVisibility
5:54 am
Tue, Oct 17
37 °FClear.9 mph65%30.24 "Hg10 mi
4:54 am36 °FClear.5 mph70%30.24 "Hg10 mi
3:54 am36 °FClear.12 mph73%30.21 "Hg10 mi
2:54 am36 °FClear.9 mph79%30.20 "Hg10 mi
1:54 am38 °FClear.9 mph70%30.19 "Hg10 mi
12:54 am39 °FClear.8 mph67%30.18 "Hg10 mi
11:54 pm
Mon, Oct 16
39 °FClear.7 mph70%30.17 "Hg10 mi
10:54 pm40 °FClear.8 mph70%30.17 "Hg10 mi
9:54 pm42 °FClear.12 mph68%30.15 "Hg10 mi
8:54 pm44 °FClear.8 mph65%30.11 "Hg10 mi
7:54 pm45 °FClear.9 mph63%30.08 "Hg10 mi
6:54 pm46 °FClear.8 mph61%30.06 "Hg10 mi
5:54 pm47 °FSunny.14 mph61%30.03 "Hg10 mi
4:54 pm48 °FSunny.14 mph59%30.02 "Hg10 mi
3:54 pm49 °FSunny.13 mph59%29.98 "Hg10 mi
2:54 pm49 °FSunny.10 mph61%29.97 "Hg10 mi
1:54 pm50 °FPassing clouds.12 mph61%29.96 "Hg10 mi
12:54 pm51 °FPassing clouds.13 mph59%29.97 "Hg10 mi
12:42 pm51 °FScattered clouds.9 mph61%29.95 "Hg10 mi
11:54 am51 °FOvercast.15 mph66%29.96 "Hg10 mi
10:54 am51 °FPartly sunny.8 mph69%29.95 "Hg10 mi
9:54 am52 °FOvercast.15 mph66%29.92 "Hg10 mi
9:20 am53 °FPartly sunny.13 mph69%29.90 "Hg10 mi
8:54 am53 °FPassing clouds.15 mph69%29.91 "Hg10 mi
7:54 am53 °FPassing clouds.15 mph69%29.85 "Hg10 mi
Weather by CustomWeather, © 2017

See weather overview